Crestview, FL

1:42 PM CST on February 22, 2018 (GMT -0600)
Sikes

Weather History for KCEW - December, 2012

Change the Weather History Date:

Friday, December 21, 2012

  Actual Average Record
Temperature  
Mean Temperature 42 °F -  
Max Temperature 55 °F 60 °F 78 °F (1992)
Min Temperature 30 °F 36 °F 21 °F (2003)
Degree Days  
Heating Degree Days 22    
Moisture  
Dew Point 20 °F    
Average Humidity 43    
Maximum Humidity 82    
Minimum Humidity 18    
Precipitation  
Precipitation 0.00 in - - ()
Sea Level Pressure  
Sea Level Pressure 30.26 in    
Wind  
Wind Speed 11 mph (NW)    
Max Wind Speed 18 mph    
Max Gust Speed 24 mph    
Visibility 10 miles    
Events      
Averages and records for this station are not official NWS values.
T = Trace of Precipitation, MM = Missing Value Source: NWS Daily Summary

Daily Weather History Graph

Daily Weather History Graph

Search for Another Location

Airport or City:

Trip Planner

Search our weather history database for the weather conditions in past years. The results will help you decide how hot, cold, wet, or windy it might be!

Date:

Astronomy

Dec. 21, 2012 Rise Set
Actual Time 6:39 AM CST 4:49 PM CST
Civil Twilight 6:13 AM CST 5:15 PM CST
Nautical Twilight 5:43 AM CST 5:45 PM CST
Astronomical Twilight 5:13 AM CST 6:15 PM CST
Moon 12:21 PM CST (12/21) 12:42 AM CST (12/21)
Length of Visible Light 11h 02m
Length of Day
10h 09m
Waxing Gibbous, 65% of the Moon is Illuminated
Dec 21
Waxing Gibbous
Dec 28
Full
Jan 4
Last Quarter
Jan 11
New
Jan 18
First Quarter

Hourly Weather History & Observations

Time (CST) Temp. Windchill Dew Point Humidity Pressure Visibility Wind Dir Wind Speed Gust Speed Precip Events Conditions
12:53 AM 45.0 °F 39.3 °F 27.0 °F 49% 30.17 in 10.0 mi NW 11.5 mph - N/A   Clear
1:53 AM 43.0 °F 36.4 °F 25.0 °F 49% 30.18 in 10.0 mi WNW 12.7 mph - N/A   Clear
2:53 AM 43.0 °F 37.2 °F 23.0 °F 45% 30.19 in 10.0 mi WNW 10.4 mph - N/A   Clear
3:53 AM 41.0 °F 34.7 °F 24.1 °F 51% 30.19 in 10.0 mi WNW 10.4 mph - N/A   Clear
4:53 AM 39.9 °F 31.4 °F 21.9 °F 49% 30.19 in 10.0 mi NW 16.1 mph - N/A   Clear
6:53 AM 37.0 °F 31.6 °F 23.0 °F 57% 30.25 in 10.0 mi WNW 6.9 mph - N/A   Clear
7:53 AM 39.9 °F 32.9 °F 21.9 °F 49% 30.28 in 10.0 mi WNW 11.5 mph - N/A   Clear
8:53 AM 43.0 °F 35.4 °F 21.0 °F 42% 30.29 in 10.0 mi WNW 16.1 mph 23.0 mph N/A   Clear
9:53 AM 46.9 °F - 19.0 °F 33% 30.30 in 10.0 mi NNW 13.8 mph 20.7 mph N/A   Clear
10:53 AM 50.0 °F - 15.1 °F 25% 30.29 in 10.0 mi NW 13.8 mph 23.0 mph N/A   Clear
11:53 AM 53.1 °F - 15.1 °F 22% 30.26 in 10.0 mi NW 15.0 mph 23.0 mph N/A   Clear
12:53 PM 54.0 °F - 12.0 °F 19% 30.24 in 10.0 mi WNW 18.4 mph 24.2 mph N/A   Clear
1:53 PM 55.0 °F - 12.9 °F 19% 30.22 in 10.0 mi NW 13.8 mph 21.9 mph N/A   Clear
2:53 PM 55.0 °F - 12.0 °F 18% 30.22 in 10.0 mi NNW 13.8 mph 20.7 mph N/A   Clear
3:53 PM 54.0 °F - 12.9 °F 20% 30.23 in 10.0 mi NW 13.8 mph - N/A   Clear
4:53 PM 48.0 °F - 17.1 °F 29% 30.24 in 10.0 mi NW 5.8 mph - N/A   Clear
5:53 PM 45.0 °F 43.5 °F 19.0 °F 36% 30.27 in 10.0 mi WNW 3.5 mph - N/A   Clear
6:53 PM 35.1 °F - 25.0 °F 67% 30.30 in 10.0 mi Calm Calm - N/A   Clear
7:53 PM 33.1 °F - 26.1 °F 75% 30.31 in 10.0 mi Calm Calm - N/A   Clear
8:53 PM 30.0 °F - 25.0 °F 82% 30.32 in 10.0 mi Calm Calm - N/A   Clear
9:53 PM 41.0 °F 35.8 °F 23.0 °F 49% 30.33 in 10.0 mi NW 8.1 mph - N/A   Clear
10:53 PM 39.0 °F 34.0 °F 21.0 °F 49% 30.34 in 10.0 mi WNW 6.9 mph - N/A   Clear
11:53 PM 39.9 °F 33.4 °F 19.9 °F 45% 30.34 in 10.0 mi NW 10.4 mph - N/A   Clear